This demonstration page uses our WeatherBlox Daily Observations layout. Learn more.

Left ArrowRight Arrow

41.55636, -103.73856

Hourly Observations for July 6, 2015

Temp ( °F °C ) Dew Point ( °F °C ) Humidity (%) Winds ( mph kmh ) Pressure ( in mb ) Visibility ( mi km ) Precip ( " mm )
12:23 am 00:23 Cloudy 63 17.2 59 15 87 87 NNE 10 17 29.91 1013 10 16.0934 0 0
12:53 am 00:53 Cloudy 62 16.7 60 15.6 93 93 NNE 12 19 29.93 1013 8 12.87472 0 0
1:35 am 01:35 Cloudy with Rain 62 16.7 60 15.6 93 93 N 10 17 29.94 1014 4 6.43736 0.02 0.508
1:45 am 01:45 Cloudy with Rain 62 16.7 60 15.6 93 93 N 10 17 29.94 1014 5 8.0467 0.04 1.016
1:53 am 01:53 Cloudy with Light Rain 62 16.7 60 15.6 93 93 N 9 15 29.94 1014 6 9.65604 0.05 1.27
2:53 am 02:53 Cloudy with Light Rain 62 16.7 59 15 90 90 N 5 7 29.96 1014 10 16.0934 0.02 0.508
3:03 am 03:03 Cloudy 63 17 59 15 88 88 N 6 9 29.97 1015 10 16.0934 0 0
3:10 am 03:10 Cloudy 63 17 59 15 88 88 N 9 15 29.97 1015 10 16.0934 0 0
3:18 am 03:18 Cloudy 63 17 59 15 88 88 N 9 15 29.97 1015 10 16.0934 0 0
3:29 am 03:29 Cloudy with Light Rain 62 16.7 59 15 90 90 N 8 13 29.97 1015 10 16.0934 0 0.0254
3:53 am 03:53 Cloudy with Light Rain 61 16.1 58 14.4 90 90 N 10 17 29.99 1016 8 12.87472 0 0.0254
4:07 am 04:07 Cloudy 61 16.1 58 14.4 90 90 N 12 19 30 1016 10 16.0934 0 0.0254
4:26 am 04:26 Cloudy 61 16 57 14 88 88 N 10 17 30 1016 9 14.48406 0 0
4:53 am 04:53 Cloudy with Rain 60 15.6 58 14.4 93 93 N 10 17 30.06 1018 3 4.82802 0.01 0.254
5:12 am 05:12 Cloudy with Light Rain 61 16 57 14 88 88 N 8 13 30 1016 5 8.0467 0 0
5:31 am 05:31 Cloudy with Light Rain 60 15.6 58 14.4 93 93 N 5 7 30 1016 5 8.0467 0.01 0.254
5:53 am 05:53 Cloudy with Mist and Fog 60 15.6 58 14.4 93 93 N 8 13 30.07 1018 6 9.65604 0.02 0.508
6:10 am 06:10 Cloudy with Mist and Fog 61 16 57 14 88 88 N 13 20 30.03 1017 3 4.82802 0 0
6:32 am 06:32 Cloudy with Mist and Fog 61 16 57 14 88 88 NNE 9 15 30.03 1017 3 4.82802 0 0
6:53 am 06:53 Cloudy with Mist and Fog 59 15 55 12.8 87 87 NNE 13 20 30.1 1019 2.5 4.02335 0 0
7:03 am 07:03 Cloudy with Mist and Fog 59 15 55 13 88 88 NNE 14 22 30.06 1018 2.5 4.02335 0 0
7:53 am 07:53 Cloudy with Haze 60 15.6 55 12.8 84 84 NNE 10 17 30.11 1020 2 3.21868 0 0
8:32 am 08:32 Cloudy with Haze 61 16 55 13 83 83 NNE 7 11 30.06 1018 2 3.21868 0 0
8:46 am 08:46 Cloudy with Haze 61 16.1 55 12.8 81 81 N 7 11 30.06 1018 1.75 2.816345 0 0
8:53 am 08:53 Cloudy with Haze 61 16.1 55 12.8 81 81 NNE 8 13 30.13 1020 1.75 2.816345 0 0
9:27 am 09:27 Cloudy with Haze 62 16.7 55 12.8 78 78 N 9 15 30.09 1019 2 3.21868 0 0
9:53 am 09:53 Cloudy with Haze 62 16.7 55 12.8 78 78 NNE 13 20 30.15 1021 2 3.21868 0 0
10:53 am 10:53 Cloudy with Haze 63 17.2 54 12.2 73 73 NNE 13 20 30.15 1021 2 3.21868 0 0
11:17 am 11:17 Cloudy with Haze 65 18.3 54 12.2 68 68 NNE 10 17 30.06 1018 2 3.21868 0 0
11:25 am 11:25 Cloudy with Haze 65 18.3 54 12.2 68 68 NNE 10 17 30.06 1018 2 3.21868 0 0
11:53 am 11:53 Cloudy with Haze 66 18.9 53 11.7 63 63 N 10 17 30.16 1021 2.5 4.02335 0 0
12:03 pm 12:03 Cloudy with Haze 66 19 54 12 64 64 NNE 8 13 30.09 1019 2.5 4.02335 0 0
12:53 pm 12:53 Cloudy with Haze 65 18.3 52 11.1 63 63 NNE 8 13 30.17 1022 3 4.82802 0 0
1:53 pm 13:53 Cloudy with Haze 66 18.9 52 11.1 61 61 NNE 3 6 30.17 1022 3 4.82802 0 0
2:53 pm 14:53 Cloudy with Haze 69 20.6 52 11.1 55 55 E 6 9 30.15 1021 3 4.82802 0 0
3:53 pm 15:53 Mostly Cloudy with Haze 70 21.1 52 11.1 53 53 Calm 30.14 1021 4 6.43736 0 0
4:53 pm 16:53 Cloudy with Haze 68 20 53 11.7 59 59 NE 5 7 30.13 1020 4 6.43736 0 0
5:53 pm 17:53 Cloudy with Haze 68 20 55 12.8 63 63 NE 6 9 30.11 1020 4 6.43736 0 0
6:53 pm 18:53 Cloudy with Haze 67 19.4 54 12.2 63 63 NE 3 6 30.11 1020 4 6.43736 0 0
7:53 pm 19:53 Cloudy with Haze 66 18.9 57 13.9 73 73 NNE 3 6 30.12 1020 4 6.43736 0 0
8:53 pm 20:53 Cloudy with Haze 65 18.3 59 15 81 81 E 3 6 30.13 1020 5 8.0467 0 0
9:53 pm 21:53 Cloudy with Haze 65 18.3 58 14.4 78 78 ESE 5 7 30.16 1021 5 8.0467 0 0
10:53 pm 22:53 Cloudy with Haze 64 17.8 57 13.9 78 78 ESE 5 7 30.16 1021 5 8.0467 0 0
11:53 pm 23:53 Cloudy with Haze 64 17.8 57 13.9 78 78 SE 5 7 30.14 1021 5 8.0467 0 0.0254

Powered by AerisWeather